Time,TemperatureF,DewpointF,PressureIn,WindDirection,WindDirectionDegrees,WindSpeedMPH,WindSpeedGustMPH,Humidity,HourlyPrecipIn,Conditions,Clouds,dailyrainin,SoftwareType,DateUTC
2013-03-26 00:01:00,37.8,31.9,29.65,SSW,202,2.7,-999.0,79,-99.99,,,0.00,Acu-Link.com,2013-03-26 04:01:00,
2013-03-26 00:16:00,37.4,32.1,29.65,South,180,1.1,-999.0,81,-99.99,,,0.00,Acu-Link.com,2013-03-26 04:16:00,
2013-03-26 00:31:00,37.6,31.7,29.65,ESE,112,1.7,-999.0,79,-99.99,,,0.00,Acu-Link.com,2013-03-26 04:31:00,
2013-03-26 00:47:00,37.0,31.7,29.67,NNW,337,1.1,-999.0,81,-99.99,,,0.00,Acu-Link.com,2013-03-26 04:47:00,
2013-03-26 01:02:00,36.9,33.4,29.66,SSE,157,1.7,-999.0,87,-99.99,,,0.00,Acu-Link.com,2013-03-26 05:02:00,
2013-03-26 01:17:00,37.2,34.0,29.67,South,180,1.7,-999.0,88,-99.99,,,0.00,Acu-Link.com,2013-03-26 05:17:00,
2013-03-26 01:32:00,37.8,34.3,29.67,South,180,2.2,-999.0,87,-99.99,,,0.00,Acu-Link.com,2013-03-26 05:32:00,
2013-03-26 01:47:00,37.9,34.4,29.68,SE,135,2.7,-999.0,87,-99.99,,,0.00,Acu-Link.com,2013-03-26 05:47:00,
2013-03-26 02:02:00,37.8,34.3,29.68,West,270,1.7,-999.0,87,-99.99,,,0.00,Acu-Link.com,2013-03-26 06:02:00,
2013-03-26 02:17:00,37.9,34.7,29.68,NNE,22,3.7,-999.0,88,-99.99,,,0.00,Acu-Link.com,2013-03-26 06:17:00,
2013-03-26 02:32:00,37.9,35.0,29.68,SSW,202,3.2,-999.0,89,-99.99,,,0.00,Acu-Link.com,2013-03-26 06:32:00,
2013-03-26 02:47:00,37.8,35.4,29.68,North,0,2.7,-999.0,91,-99.99,,,0.00,Acu-Link.com,2013-03-26 06:47:00,
2013-03-26 03:02:00,37.8,36.8,29.68,South,180,3.7,-999.0,96,-99.99,,,0.00,Acu-Link.com,2013-03-26 07:02:00,
2013-03-26 03:18:00,37.8,37.3,29.68,North,0,1.7,-999.0,98,-99.99,,,0.00,Acu-Link.com,2013-03-26 07:18:00,
2013-03-26 03:33:00,37.8,37.3,29.68,NNW,337,2.2,-999.0,98,-99.99,,,0.00,Acu-Link.com,2013-03-26 07:33:00,
2013-03-26 03:48:00,37.8,37.3,29.68,SSW,202,1.7,-999.0,98,-99.99,,,0.00,Acu-Link.com,2013-03-26 07:48:00,
2013-03-26 04:03:00,37.8,37.3,29.69,West,270,1.1,-999.0,98,-99.99,,,0.00,Acu-Link.com,2013-03-26 08:03:00,
2013-03-26 04:19:00,37.8,37.0,29.68,ESE,112,2.2,-999.0,97,-99.99,,,0.00,Acu-Link.com,2013-03-26 08:19:00,
2013-03-26 04:34:00,37.8,37.3,29.69,SSW,202,3.7,-999.0,98,-99.99,,,0.00,Acu-Link.com,2013-03-26 08:34:00,
2013-03-26 04:49:00,37.4,36.9,29.70,SE,135,1.7,-999.0,98,-99.99,,,0.00,Acu-Link.com,2013-03-26 08:49:00,
2013-03-26 05:04:00,36.7,36.2,29.69,SW,225,2.2,-999.0,98,-99.99,,,0.00,Acu-Link.com,2013-03-26 09:04:00,
2013-03-26 05:19:00,36.0,35.5,29.70,ESE,112,1.7,-999.0,98,-99.99,,,0.00,Acu-Link.com,2013-03-26 09:19:00,
2013-03-26 05:34:00,35.2,34.7,29.71,ESE,112,1.7,-999.0,98,-99.99,,,0.00,Acu-Link.com,2013-03-26 09:34:00,
2013-03-26 05:49:00,34.9,34.4,29.71,North,0,1.1,-999.0,98,-99.99,,,0.00,Acu-Link.com,2013-03-26 09:49:00,
2013-03-26 06:04:00,34.3,33.8,29.71,WNW,292,1.7,-999.0,98,-99.99,,,0.00,Acu-Link.com,2013-03-26 10:04:00,
2013-03-26 06:20:00,33.6,33.1,29.70,North,0,0.0,-999.0,98,-99.99,,,0.00,Acu-Link.com,2013-03-26 10:20:00,
2013-03-26 06:35:00,33.1,32.6,29.70,SE,135,1.1,-999.0,98,-99.99,,,0.00,Acu-Link.com,2013-03-26 10:35:00,
2013-03-26 06:50:00,32.5,32.0,29.71,NNW,337,1.1,-999.0,98,-99.99,,,0.00,Acu-Link.com,2013-03-26 10:50:00,
2013-03-26 07:05:00,32.4,31.9,29.72,NNE,22,0.0,-999.0,98,-99.99,,,0.00,Acu-Link.com,2013-03-26 11:05:00,
2013-03-26 07:20:00,32.2,31.7,29.72,NNE,22,0.0,-999.0,98,-99.99,,,0.00,Acu-Link.com,2013-03-26 11:20:00,
2013-03-26 07:35:00,32.7,32.2,29.73,East,90,0.0,-999.0,98,-99.99,,,0.00,Acu-Link.com,2013-03-26 11:35:00,
2013-03-26 07:50:00,33.1,32.6,29.74,NE,45,2.2,-999.0,98,-99.99,,,0.00,Acu-Link.com,2013-03-26 11:50:00,
2013-03-26 08:05:00,34.2,33.7,29.74,NNW,337,1.1,-999.0,98,-99.99,,,0.00,Acu-Link.com,2013-03-26 12:05:00,
2013-03-26 08:20:00,35.8,35.3,29.75,NNE,22,2.2,-999.0,98,-99.99,,,0.00,Acu-Link.com,2013-03-26 12:20:00,
2013-03-26 08:36:00,37.6,37.1,29.75,NW,315,2.7,-999.0,98,-99.99,,,0.00,Acu-Link.com,2013-03-26 12:36:00,
2013-03-26 08:51:00,39.9,39.4,29.75,WNW,292,5.3,-999.0,98,-99.99,,,0.00,Acu-Link.com,2013-03-26 12:51:00,
2013-03-26 09:51:00,44.6,35.8,29.76,NNW,337,2.7,-999.0,71,-99.99,,,0.00,Acu-Link.com,2013-03-26 13:51:00,
2013-03-26 10:06:00,45.7,35.8,29.76,NNE,22,3.7,-999.0,68,-99.99,,,0.00,Acu-Link.com,2013-03-26 14:06:00,
2013-03-26 10:21:00,45.9,35.2,29.76,West,270,6.3,-999.0,66,-99.99,,,0.00,Acu-Link.com,2013-03-26 14:21:00,
2013-03-26 10:36:00,46.4,34.9,29.77,NNE,22,7.3,-999.0,64,-99.99,,,0.00,Acu-Link.com,2013-03-26 14:36:00,
2013-03-26 10:51:00,46.9,35.0,29.77,NNW,337,6.3,-999.0,63,-99.99,,,0.00,Acu-Link.com,2013-03-26 14:51:00,
2013-03-26 11:07:00,47.7,35.7,29.77,North,0,8.9,-999.0,63,-99.99,,,0.00,Acu-Link.com,2013-03-26 15:07:00,
2013-03-26 11:22:00,48.4,34.7,29.77,WSW,247,4.2,-999.0,59,-99.99,,,0.00,Acu-Link.com,2013-03-26 15:22:00,
2013-03-26 11:37:00,50.9,35.8,29.77,West,270,2.2,-999.0,56,-99.99,,,0.00,Acu-Link.com,2013-03-26 15:37:00,
2013-03-26 11:52:00,51.1,37.7,29.77,NW,315,6.8,-999.0,60,-99.99,,,0.00,Acu-Link.com,2013-03-26 15:52:00,
2013-03-26 12:07:00,49.5,34.9,29.77,NNW,337,4.2,-999.0,57,-99.99,,,0.00,Acu-Link.com,2013-03-26 16:07:00,
2013-03-26 12:22:00,51.4,35.3,29.77,NE,45,5.3,-999.0,54,-99.99,,,0.00,Acu-Link.com,2013-03-26 16:22:00,
2013-03-26 12:37:00,49.1,34.5,29.77,North,0,2.2,-999.0,57,-99.99,,,0.00,Acu-Link.com,2013-03-26 16:37:00,
2013-03-26 12:52:00,48.6,33.6,29.77,North,0,1.1,-999.0,56,-99.99,,,0.00,Acu-Link.com,2013-03-26 16:52:00,
2013-03-26 13:08:00,49.6,34.1,29.77,SSW,202,2.7,-999.0,55,-99.99,,,0.00,Acu-Link.com,2013-03-26 17:08:00,
2013-03-26 13:23:00,49.5,34.9,29.77,NNE,22,3.2,-999.0,57,-99.99,,,0.00,Acu-Link.com,2013-03-26 17:23:00,
2013-03-26 13:38:00,49.1,33.6,29.77,West,270,2.7,-999.0,55,-99.99,,,0.00,Acu-Link.com,2013-03-26 17:38:00,
2013-03-26 13:53:00,49.1,34.5,29.77,NW,315,4.2,-999.0,57,-99.99,,,0.00,Acu-Link.com,2013-03-26 17:53:00,
2013-03-26 14:08:00,48.9,34.3,29.77,NW,315,2.2,-999.0,57,-99.99,,,0.00,Acu-Link.com,2013-03-26 18:08:00,
2013-03-26 14:23:00,49.3,34.3,29.77,SSW,202,4.2,-999.0,56,-99.99,,,0.00,Acu-Link.com,2013-03-26 18:23:00,
2013-03-26 14:38:00,48.7,33.7,29.77,NW,315,8.3,-999.0,56,-99.99,,,0.00,Acu-Link.com,2013-03-26 18:38:00,
2013-03-26 14:53:00,48.9,34.3,29.78,NNE,22,3.7,-999.0,57,-99.99,,,0.00,Acu-Link.com,2013-03-26 18:53:00,
2013-03-26 15:23:00,48.6,34.9,29.78,WNW,292,1.1,-999.0,59,-99.99,,,0.00,Acu-Link.com,2013-03-26 19:23:00,
2013-03-26 15:39:00,48.7,34.6,29.77,NW,315,3.7,-999.0,58,-99.99,,,0.00,Acu-Link.com,2013-03-26 19:39:00,
2013-03-26 15:54:00,48.9,35.2,29.78,NNE,22,4.7,-999.0,59,-99.99,,,0.00,Acu-Link.com,2013-03-26 19:54:00,
2013-03-26 16:09:00,48.6,34.9,29.78,East,90,3.2,-999.0,59,-99.99,,,0.00,Acu-Link.com,2013-03-26 20:09:00,
2013-03-26 16:24:00,49.6,35.4,29.79,WNW,292,4.7,-999.0,58,-99.99,,,0.00,Acu-Link.com,2013-03-26 20:24:00,
2013-03-26 16:39:00,50.2,35.6,29.79,NNW,337,2.7,-999.0,57,-99.99,,,0.00,Acu-Link.com,2013-03-26 20:39:00,
2013-03-26 16:54:00,49.1,34.1,29.79,North,0,3.2,-999.0,56,-99.99,,,0.00,Acu-Link.com,2013-03-26 20:54:00,
2013-03-26 17:09:00,48.0,33.9,29.80,WNW,292,4.2,-999.0,58,-99.99,,,0.00,Acu-Link.com,2013-03-26 21:09:00,
2013-03-26 17:24:00,48.7,34.6,29.81,NNW,337,2.2,-999.0,58,-99.99,,,0.00,Acu-Link.com,2013-03-26 21:24:00,
2013-03-26 17:39:00,49.1,34.5,29.81,NNW,337,3.2,-999.0,57,-99.99,,,0.00,Acu-Link.com,2013-03-26 21:39:00,
2013-03-26 17:55:00,48.6,34.9,29.81,NNE,22,2.2,-999.0,59,-99.99,,,0.00,Acu-Link.com,2013-03-26 21:55:00,
2013-03-26 18:10:00,48.2,34.1,29.81,NW,315,2.7,-999.0,58,-99.99,,,0.00,Acu-Link.com,2013-03-26 22:10:00,
2013-03-26 18:25:00,47.5,33.0,29.81,NE,45,2.2,-999.0,57,-99.99,,,0.00,Acu-Link.com,2013-03-26 22:25:00,
2013-03-26 18:40:00,46.8,32.8,29.82,West,270,3.7,-999.0,58,-99.99,,,0.00,Acu-Link.com,2013-03-26 22:40:00,
2013-03-26 18:55:00,46.2,32.2,29.82,SSW,202,2.7,-999.0,58,-99.99,,,0.00,Acu-Link.com,2013-03-26 22:55:00,
2013-03-26 19:10:00,46.0,33.3,29.83,SSW,202,1.1,-999.0,61,-99.99,,,0.00,Acu-Link.com,2013-03-26 23:10:00,
2013-03-26 19:25:00,45.7,32.6,29.84,NW,315,4.2,-999.0,60,-99.99,,,0.00,Acu-Link.com,2013-03-26 23:25:00,
2013-03-26 19:40:00,45.0,33.2,29.83,WSW,247,2.7,-999.0,63,-99.99,,,0.00,Acu-Link.com,2013-03-26 23:40:00,
2013-03-26 19:55:00,44.1,33.1,29.85,North,0,2.2,-999.0,65,-99.99,,,0.00,Acu-Link.com,2013-03-26 23:55:00,
2013-03-26 20:11:00,43.3,33.5,29.85,West,270,1.1,-999.0,68,-99.99,,,0.00,Acu-Link.com,2013-03-27 00:11:00,
2013-03-26 20:26:00,43.2,33.7,29.86,NE,45,1.1,-999.0,69,-99.99,,,0.00,Acu-Link.com,2013-03-27 00:26:00,
2013-03-26 21:11:00,43.5,33.3,29.89,NE,45,1.7,-999.0,67,-99.99,,,0.00,Acu-Link.com,2013-03-27 01:11:00,
2013-03-26 21:26:00,43.5,33.7,29.90,SW,225,0.0,-999.0,68,-99.99,,,0.00,Acu-Link.com,2013-03-27 01:26:00,
2013-03-26 21:41:00,43.0,33.2,29.90,West,270,1.7,-999.0,68,-99.99,,,0.00,Acu-Link.com,2013-03-27 01:41:00,
2013-03-26 21:56:00,42.3,33.2,29.91,SW,225,4.7,-999.0,70,-99.99,,,0.00,Acu-Link.com,2013-03-27 01:56:00,
2013-03-26 22:11:00,41.7,33.4,29.92,West,270,3.2,-999.0,72,-99.99,,,0.00,Acu-Link.com,2013-03-27 02:11:00,
2013-03-26 22:42:00,40.6,34.3,29.93,NNE,22,2.2,-999.0,78,-99.99,,,0.00,Acu-Link.com,2013-03-27 02:42:00,
2013-03-26 22:57:00,40.1,34.7,29.93,ESE,112,1.7,-999.0,81,-99.99,,,0.00,Acu-Link.com,2013-03-27 02:57:00,
2013-03-26 23:12:00,39.7,35.3,29.94,NW,315,4.7,-999.0,84,-99.99,,,0.00,Acu-Link.com,2013-03-27 03:12:00,
2013-03-26 23:27:00,39.4,35.9,29.94,NNE,22,2.7,-999.0,87,-99.99,,,0.00,Acu-Link.com,2013-03-27 03:27:00,
2013-03-26 23:42:00,39.0,36.3,29.94,North,0,2.2,-999.0,90,-99.99,,,0.00,Acu-Link.com,2013-03-27 03:42:00,
2013-03-26 23:57:00,38.1,36.8,29.95,ESE,112,0.0,-999.0,95,-99.99,,,0.00,Acu-Link.com,2013-03-27 03:57:00,